Home   Weather   Vennesla   Past weeks

Flag for Norway Past Weather in Vennesla, Norway — Yesterday and Last 2 Weeks

Now
43 °F

Scattered clouds.


Feels Like: 35 °F
Forecast: 35 / 45 °F
Wind: 17 mph from West

Location: Kristiansand / Kjevik

Current Time: Apr 24, 2017 at 9:44:04 am

Latest Report: Apr 24, 2017 at 8:50 am


Visibility: N/A

Pressure: 29.39 "Hg

Humidity: 71%

Dew Point: 34 °F

Location of VenneslaLocation

Past Weather in Vennesla — Graph

°F

Vennesla Temperature Yesterday

Maximum temperature yesterday: 50 °F (at 4:20 pm)
Minimum temperature yesterday: 37 °F (at 6:50 am)
Average temperature yesterday: 43 °F

High & Low Weather Summary for the Past Weeks

 TemperatureHumidityPressure
High54 °F (Apr 10, 1:50 pm)100% (Apr 11, 8:50 pm)30.57 "Hg (Apr 11, 8:50 pm)
Low27 °F (Apr 16, 6:50 am)26% (Apr 22, 12:20 pm)29.39 "Hg (Apr 24, 8:20 am)
Average42 °F70%29.93 "Hg
* Reported Apr 9 8:20 am — Apr 24 8:20 am, Vennesla, Weather by CustomWeather, © 2017

Note: Actual official high and low records may vary slightly from our data, if they occured in-between our weather recording intervals... More about our weather records

Advertising

Vennesla Weather History for the Previous 24 Hours

Scroll right to see more
 ConditionsComfort  
Time TempWeatherWind HumidityBarometerVisibility
8:20 am
Mon, Apr 24
45 °FPartly sunny.13 mph76%29.39 "HgN/A
7:50 am43 °FPartly sunny.13 mph87%29.42 "HgN/A
7:20 am43 °FScattered clouds.12 mph87%29.42 "HgN/A
6:50 am43 °FScattered showers. Scattered clouds.10 mph87%29.45 "HgN/A
6:20 am43 °FLight rain. Partly sunny.16 mph87%29.47 "HgN/A
5:50 am43 °FPassing clouds.15 mph87%29.47 "HgN/A
5:20 am43 °FRain. Overcast.16 mph87%29.50 "HgN/A
4:50 am43 °FLight rain. Mostly cloudy.16 mph87%29.53 "Hg5 mi
4:20 am41 °FRain. Mostly cloudy.17 mph93%29.59 "Hg6 mi
3:50 am39 °FLight rain. Mostly cloudy.17 mph93%29.62 "Hg5 mi
3:20 am41 °FRain. Mostly cloudy.15 mph87%29.65 "HgN/A
2:50 am41 °FLight rain. Mostly cloudy.15 mph87%29.68 "HgN/A
2:20 am41 °FLight rain. Mostly cloudy.16 mph87%29.71 "HgN/A
1:50 am41 °FLight rain. Low clouds.8 mph87%29.74 "Hg5 mi
1:20 am41 °FDrizzle. Mostly cloudy.12 mph87%29.77 "HgN/A
12:50 am41 °FDrizzle. Mostly cloudy.9 mph87%29.80 "HgN/A
12:20 am39 °FPartly cloudy.8 mph87%29.80 "HgN/A
11:50 pm
Sun, Apr 23
39 °FMostly cloudy.8 mph81%29.83 "HgN/A
11:20 pm39 °FPassing clouds.6 mph75%29.86 "HgN/A
10:50 pm39 °FPassing clouds.7 mph75%29.89 "HgN/A
10:20 pm39 °FPassing clouds.8 mph75%29.89 "HgN/A
9:50 pm41 °FPassing clouds.7 mph66%29.89 "HgN/A
9:20 pm41 °FClear.10 mph66%29.92 "Hg10 mi
8:50 pm43 °FSunny.13 mph57%29.92 "Hg10 mi
8:20 pm45 °FSunny.15 mph53%29.92 "Hg10 mi
7:50 pm45 °FPassing clouds.13 mph46%29.92 "HgN/A
7:20 pm46 °FSunny.16 mph43%29.92 "Hg10 mi
6:50 pm48 °FPassing clouds.12 mph34%29.92 "HgN/A
6:20 pm48 °FPassing clouds.12 mph34%29.92 "HgN/A
5:50 pm48 °FPassing clouds.13 mph34%29.92 "HgN/A
5:20 pm48 °FPassing clouds.12 mph32%29.95 "HgN/A
4:50 pm50 °FPassing clouds.12 mph28%29.92 "HgN/A
4:20 pm50 °FPassing clouds.16 mph28%29.92 "HgN/A
3:50 pm48 °FPassing clouds.13 mph32%29.95 "HgN/A
3:20 pm48 °FPassing clouds.12 mph32%29.95 "HgN/A
2:50 pm48 °FPassing clouds.16 mph32%29.95 "HgN/A
2:20 pm48 °FPassing clouds.18 mph32%29.95 "HgN/A
1:50 pm48 °FSunny.17 mph32%29.95 "Hg10 mi
1:20 pm46 °FPassing clouds.16 mph34%29.95 "HgN/A
12:50 pm46 °FSunny.20 mph32%29.95 "Hg10 mi
12:20 pm48 °FPassing clouds.15 mph32%29.95 "HgN/A
11:50 am46 °FPassing clouds.12 mph32%29.95 "HgN/A
11:20 am46 °FPassing clouds.9 mph29%29.98 "HgN/A
10:50 am46 °FPassing clouds.9 mph32%29.98 "HgN/A
10:20 am43 °FPassing clouds.8 mph36%29.98 "HgN/A
9:50 am43 °FPassing clouds.13 mph36%29.98 "HgN/A
9:20 am43 °FPassing clouds.12 mph36%29.98 "HgN/A
Weather by CustomWeather, © 2017

See weather overviewHow to use our weather pages